Tracking 30970 objects as of 3-Jul-2025
HD Live streaming from Space Station
objects crossing your sky now

FENGYUN 1C DEB

Track FENGYUN 1C DEB now!
10-day predictions


NORAD ID: 33601
Int'l Code: 1999-025DCJ
Perigee: 762.2 km
Apogee: 991.8 km
Inclination: 98.3 °
Period: 102.3 minutes
Semi major axis: 7247 km
RCS: 0.0058 m2 (small)
Launch date: May 10, 1999
Source: People's Republic of China (PRC)
Launch site: Taiyaun Space Center, China (TSC)

Note: This is SATELLITE DEBRIS
Your satellite tracking list
Your tracking list is empty




NASA's NSSDC Master Catalog

Two Line Element Set (TLE):
1 33601U 99025DCJ 25178.90754707  .00001280  00000-0  70634-3 0  9994
2 33601  98.3032 348.4454 0158334 261.3250  96.9957 14.06941309883332
Source of the keplerian elements: AFSPC